Location: Clermont
(50.2608°N, 4.3172°E)
Time: 10:27:21
(UTC+00:00)

Cosmos 2360 Rocket - Pass Details

Date: 13 August 2020
Orbit: 833 x 845 km, 71.0° (Epoch: 20 September)

Event Time Altitude Azimuth Distance (km) Brightness Sun altitude
Rises 20:51:39 0° 332° (NNW) 3,417 6.9 -14.8°
Reaches altitude 10° 20:54:12 10° 338° (NNW) 2,478 5.8 -15.1°
Maximum altitude 20:59:43 49° 53° (NE) 1,078 2.7 -15.7°
Enters shadow 21:03:00 23° 118° (ESE) 1,711 3.2 -16.1°
